Frederick, MD

11:25 AM EST on December 09, 2019 (GMT -0500)
Frederick Municipal

Weather History for KFDK - August, 2019

Change the Weather History Date:

Saturday, August 10, 2019

  Actual Average (WUND) Record (WUND)
Temperature  
Mean Temperature 72 °F -  
Max Temperature 84 °F - - (-1)
Min Temperature 59 °F - - (-1)
Cooling Degree Days 6    
Growing Degree Days 22 (Base 50)    
Moisture  
Dew Point 58 °F    
Average Humidity 74    
Maximum Humidity 94    
Minimum Humidity 39    
Precipitation  
Precipitation 0.00 in - - ()
Sea Level Pressure  
Sea Level Pressure 29.95 in    
Wind  
Wind Speed 2 mph (WNW)    
Max Wind Speed 12 mph    
Max Gust Speed 17 mph    
Visibility 10 miles    
Events      
Averages and records for this station are not official NWS values.
T = Trace of Precipitation, MM = Missing Value Source: NWS Daily Summary

Daily Weather History Graph

Daily Weather History Graph

Search for Another Location

Airport or City:

Astronomy

Aug. 10, 2019 Rise Set
Actual Time 6:17 AM EDT 8:11 PM EDT
Civil Twilight 5:48 AM EDT 8:40 PM EDT
Nautical Twilight 5:12 AM EDT 9:16 PM EDT
Astronomical Twilight 4:34 AM EDT 9:54 PM EDT
Moon 4:51 PM EDT (8/10) 1:52 AM EDT (8/10)
Length of Visible Light 14h 52m
Length of Day
13h 54m
Waxing Gibbous, 79% of the Moon is Illuminated
Aug 10
Waxing Gibbous
Aug 15
Full
Aug 23
Last Quarter
Aug 30
New
Sep 5
First Quarter

Hourly Weather History & Observations

Time (EDT) Temp. Heat Index Dew Point Humidity Pressure Visibility Wind Dir Wind Speed Gust Speed Precip Events Conditions
12:05 AM 71.6 °F - 55.4 °F 57% 29.92 in 10.0 mi Calm Calm - N/A   Clear
12:25 AM 68.0 °F - 55.4 °F 64% 29.92 in 10.0 mi ENE 3.5 mph - N/A   Clear
12:45 AM 68.0 °F - 59.0 °F 73% 29.93 in 10.0 mi Calm Calm - N/A   Clear
1:05 AM 64.4 °F - 59.0 °F 83% 29.93 in 10.0 mi Calm Calm - N/A   Clear
1:25 AM 64.4 °F - 59.0 °F 83% 29.94 in 10.0 mi ESE 3.5 mph - N/A   Clear
1:45 AM 62.6 °F - 59.0 °F 88% 29.94 in 10.0 mi Calm Calm - N/A   Clear
2:05 AM 62.6 °F - 59.0 °F 88% 29.94 in 10.0 mi Calm Calm - N/A   Clear
2:25 AM 62.6 °F - 59.0 °F 88% 29.93 in 10.0 mi Calm Calm - N/A   Clear
2:45 AM 62.6 °F - 59.0 °F 88% 29.94 in 10.0 mi Calm Calm - N/A   Clear
3:05 AM 60.8 °F - 59.0 °F 94% 29.94 in 10.0 mi Calm Calm - N/A   Clear
3:25 AM 60.8 °F - 59.0 °F 94% 29.93 in 10.0 mi Calm Calm - N/A   Clear
3:45 AM 60.8 °F - 59.0 °F 94% 29.93 in 10.0 mi Calm Calm - N/A   Clear
4:05 AM 60.8 °F - 59.0 °F 94% 29.93 in 10.0 mi Calm Calm - N/A   Clear
4:25 AM 60.8 °F - 57.2 °F 88% 29.93 in 10.0 mi Calm Calm - N/A   Clear
4:45 AM 59.0 °F - 57.2 °F 94% 29.93 in 10.0 mi Calm Calm - N/A   Clear
5:05 AM 60.8 °F - 57.2 °F 88% 29.93 in 10.0 mi SE 3.5 mph - N/A   Clear
5:25 AM 59.0 °F - 57.2 °F 94% 29.93 in 10.0 mi Calm Calm - N/A   Clear
5:45 AM 60.8 °F - 55.4 °F 82% 29.93 in 10.0 mi Calm Calm - N/A   Clear
6:05 AM 59.0 °F - 55.4 °F 88% 29.94 in 10.0 mi Calm Calm - N/A   Clear
6:25 AM 59.0 °F - 55.4 °F 88% 29.93 in 10.0 mi SSE 3.5 mph - N/A   Clear
6:45 AM 59.0 °F - 57.2 °F 94% 29.94 in 10.0 mi Calm Calm - N/A   Clear
6:47 AM 60.8 °F - 57.2 °F 88% 29.94 in 10.0 mi Calm Calm - N/A   Clear
7:05 AM 60.8 °F - 57.2 °F 88% 29.94 in 10.0 mi SSE 3.5 mph - N/A   Clear
7:47 AM 66.2 °F - 59.0 °F 78% 29.96 in 10.0 mi South 4.6 mph - N/A   Clear
8:47 AM 71.6 °F - 57.2 °F 60% 29.97 in 10.0 mi Calm Calm - N/A   Clear
9:47 AM 73.4 °F - 57.2 °F 57% 29.97 in 10.0 mi WSW 3.5 mph - N/A   Clear
10:47 AM 78.8 °F - 55.4 °F 44% 29.97 in 10.0 mi West 8.1 mph - N/A   Clear
11:47 AM 80.6 °F 80.8 °F 57.2 °F 45% 29.97 in 10.0 mi West 9.2 mph - N/A   Clear
12:47 PM 80.6 °F 80.8 °F 57.2 °F 45% 29.96 in 10.0 mi NW 11.5 mph - N/A   Mostly Cloudy
1:50 PM 80.6 °F 80.8 °F 57.2 °F 45% 29.95 in 10.0 mi WNW 10.4 mph - N/A   Scattered Clouds
2:47 PM 82.4 °F 82.0 °F 57.2 °F 42% 29.93 in 10.0 mi NW 10.4 mph - N/A   Scattered Clouds
3:47 PM 84.2 °F 83.5 °F 57.2 °F 40% 29.91 in 10.0 mi West 11.5 mph 17.3 mph N/A   Scattered Clouds
4:47 PM 84.2 °F 83.5 °F 57.2 °F 40% 29.91 in 10.0 mi WNW 11.5 mph 17.3 mph N/A   Mostly Cloudy
5:47 PM 84.2 °F 83.5 °F 57.2 °F 40% 29.90 in 10.0 mi NNW 6.9 mph - N/A   Mostly Cloudy
6:47 PM 82.4 °F 81.7 °F 55.4 °F 39% 29.91 in 10.0 mi NNW 6.9 mph - N/A   Mostly Cloudy
7:47 PM 80.6 °F 80.5 °F 55.4 °F 42% 29.92 in 10.0 mi NNW 3.5 mph - N/A   Clear
9:25 PM 71.6 °F - 60.8 °F 69% 29.97 in 10.0 mi Calm Calm - N/A   Clear
9:45 PM 69.8 °F - 60.8 °F 73% 29.97 in 10.0 mi Calm Calm - N/A   Clear
10:05 PM 68.0 °F - 62.6 °F 83% 29.98 in 10.0 mi Calm Calm - N/A   Clear
10:25 PM 68.0 °F - 62.6 °F 83% 29.99 in 10.0 mi Calm Calm - N/A   Clear
10:45 PM 66.2 °F - 60.8 °F 83% 29.99 in 10.0 mi Calm Calm - N/A   Clear
11:05 PM 64.4 °F - 62.6 °F 94% 30.00 in 10.0 mi Calm Calm - N/A   Clear
11:25 PM 64.4 °F - 60.8 °F 88% 30.00 in 10.0 mi Calm Calm - N/A   Clear
11:45 PM 64.4 °F - 60.8 °F 88% 30.01 in 10.0 mi Calm Calm - N/A   Clear